{"data":{"norad_id":64540,"epoch":"2026-05-25T01:29:52.160928Z","epoch_age_seconds":62935,"freshness":"FRESH","line1":"1 64540U 25135N   26145.06240927  .00017263  00000+0  56475-3 0  9991","line2":"2 64540  97.4590 262.3947 0001989 250.1538 109.9489 15.31763322 51491","mean_motion":15.31763322,"eccentricity":0.0001989,"inclination_deg":97.459,"raan_deg":262.3947,"arg_perigee_deg":250.1538,"mean_anomaly_deg":109.9489,"bstar":0.00056475,"rev_number":5149,"period_min":94.00930152315,"perigee_km":469.18903804998,"apogee_km":471.9134462327,"semimajor_km":6848.6882421413,"source":"CELESTRAK","updated_at":"2026-05-25T13:38:04.583128Z"}}